Overview Statistics Trail Chart Weather Telemetry Raw packets
 

This is the latest recevied weather packets stored in our database for station/object KC5TIL. If no packets are shown the sender has not sent any weather packets the latest 10 day(s).

<< 97 98 99 100 101 102 103 >>
Time Temp. Humidity Pressure Rain* Wind** Luminosity Snow
1787880139 34.44° C 47% 1014.2 hPa 0 mm - 0 W/m² -
1787879834 35° C 46% 1014.2 hPa 0 mm - 0 W/m² -
1787879529 35° C 44% 1014.1 hPa 0 mm - 0 W/m² -
1787879225 35° C 46% 1013.9 hPa 0 mm - 0 W/m² -
1787878922 35° C 45% 1014 hPa 0 mm - 0 W/m² -
1787878620 35° C 44% 1013.8 hPa 0 mm - 3 W/m² -
1787878315 35° C 45% 1013.7 hPa 0 mm - 7 W/m² -
1787878011 35° C 46% 1013.7 hPa 0 mm - 11 W/m² -
1787877707 35.56° C 44% 1013.4 hPa 0 mm - 15 W/m² -
1787877397 35.56° C 45% 1013.6 hPa 0 mm - 21 W/m² -
1787877092 35.56° C 45% 1013.5 hPa 0 mm - 25 W/m² -
1787876791 35.56° C 47% 1013.6 hPa 0 mm - 30 W/m² -
1787876486 35.56° C 46% 1013.5 hPa 0 mm - 36 W/m² -
1787876186 35.56° C 45% 1013.5 hPa 0 mm - 42 W/m² -
1787875881 35.56° C 43% 1013.6 hPa 0 mm - 49 W/m² -
1787875581 35.56° C 43% 1013.6 hPa 0 mm - 51 W/m² -
1787875280 36.11° C 42% 1013.7 hPa 0 mm - 54 W/m² -
1787874978 36.11° C 41% 1013.5 hPa 0 mm - 50 W/m² -
1787874674 36.11° C 39% 1013.6 hPa 0 mm - 44 W/m² -
1787874372 36.11° C 39% 1013.6 hPa 0 mm - 46 W/m² -
1787874067 36.11° C 38% 1013.4 hPa 0 mm - 39 W/m² -
1787873761 36.11° C 37% 1013.4 hPa 0 mm - 37 W/m² -
1787873456 36.11° C 38% 1013.5 hPa 0 mm - 40 W/m² -
1787873151 36.67° C 38% 1013.4 hPa 0 mm - 42 W/m² -
1787872850 36.67° C 37% 1013.4 hPa 0 mm - 58 W/m² -

* Rain latest hour (hover to see other rain measurements)
** Current wind speed in m/s (hover to see current wind gust speed)